Regional Weather Roundup
Issued by NWS

Home | Current Version | Previous Version | Text Only | Print | Product List | Glossary Off
Versions: 1 2 3 4 5 6 7 8 9 10 11 12 13 14 15 16 17 18 19 20 21 22 23 24 25 26 27 28 29 30 31 32 33 34 35 36 37 38 39 40 41 42 43 44 45 46 47 48 49 50

000
ASUS43 KFSD 302210
RWRSD

WEATHER ROUNDUP FOR SOUTH DAKOTA
NATIONAL WEATHER SERVICE SIOUX FALLS SD
500 PM CDT SUN AUG 30 2015

NOTE: "FAIR" INDICATES FEW OR NO CLOUDS BELOW 12,000 FEET WITH NO
SIGNIFICANT WEATHER AND/OR OBSTRUCTIONS TO VISIBILITY.


SDZ001>005-009-010-012>017-302300-
NORTHWEST AND NORTH CENTRAL SOUTH DAKOTA

CITY           SKY/WX    TMP DP  RH WIND       PRES   REMARKS
BUFFALO          N/A     94  50  22 NW12G18   29.70F
FAITH            N/A     96  52  22 SW9       29.72S
MOBRIDGE       MOSUNNY   96  58  27 S21G29    29.64F HX  95
$$

SDZ012>016-024>037-041>051-057-063-072>074-302300-
SOUTHWEST AND SOUTH CENTRAL SOUTH DAKOTA

CITY           SKY/WX    TMP DP  RH WIND       PRES   REMARKS
RAPID CTY ARPT MOSUNNY   97  52  21 S15       29.73F
PIERRE         MOSUNNY   98  52  21 S18G28    29.69F HX  95
CUSTER         MOSUNNY   90  40  17 W9G18     29.96F
ELLSWORTH AFB  MOSUNNY  100  49  18 S13       29.72F HX  96
PHILIP         SUNNY     99  56  23 S13       29.69F HX  97
PINE RIDGE     SUNNY     99  44  15 S7        29.80F HX  95
WINNER         FAIR      95  47  19 S24G35    29.78F
$$

SDZ004>011-016>023-039-040-302300-
NORTHEAST SOUTH DAKOTA

CITY           SKY/WX    TMP DP  RH WIND       PRES   REMARKS
ABERDEEN       MOSUNNY   84  70  62 S18       29.75F
WATERTOWN      SUNNY     80  68  66 S17G23    29.84F
BROOKINGS      SUNNY     77  66  69 SE16      29.91F
SISSETON         N/A     87  67  51 S14       29.77F
$$

SDZ017-020-022-023-036>040-048>070-302300-
SOUTHEAST SOUTH DAKOTA

CITY           SKY/WX    TMP DP  RH WIND       PRES   REMARKS
SIOUX FALLS    CLOUDY    76  65  68 S10       29.91F
HURON          SUNNY     83  69  62 SE18G26   29.79F
CHAMBERLAIN    MOSUNNY   88  61  40 S10G18    29.78F
MITCHELL       SUNNY     83  69  62 SE21G30   29.83F
YANKTON        SUNNY     79  66  65 SE17      29.89S
$$

ABBREVIATIONS USED IN REMARKS
   TC - TEMPERATURE IN CELSIUS
  WCI - WIND CHILL INDEX
   HX - HEAT INDEX
  VSB - VISIBILITY




USA.gov is the U.S. government's official web portal to all federal, state and local government web resources and services.